Middlesboro, KY

2:46 PM CDT on July 20, 2017 (GMT -0500)
Middlesboro

Weather History for K1A6 - June, 2013

Change the Weather History Date:

Wednesday, June 12, 2013

  Actual Average (KLOZ) Record (KLOZ)
Temperature  
Mean Temperature 78 °F -  
Max Temperature 93 °F 82 °F 91 °F (1984)
Min Temperature 63 °F 59 °F 44 °F (1972)
Cooling Degree Days 12    
Growing Degree Days 28 (Base 50)    
Moisture  
Dew Point 67 °F    
Average Humidity 73    
Maximum Humidity 98    
Minimum Humidity 45    
Precipitation  
Precipitation 0.00 in - - ()
Sea Level Pressure  
Sea Level Pressure 30.01 in    
Wind  
Wind Speed 1 mph (West)    
Max Wind Speed 10 mph    
Max Gust Speed -    
Visibility 10 miles    
Events      
Averages and records for this station are not official NWS values.
T = Trace of Precipitation, MM = Missing Value Source: NWS Daily Summary

Daily Weather History Graph

Daily Weather History Graph

Search for Another Location

Airport or City:

Trip Planner

Search our weather history database for the weather conditions in past years. The results will help you decide how hot, cold, wet, or windy it might be!

Date:

Astronomy

Jun. 12, 2013 Rise Set
Actual Time 5:15 AM CDT 7:54 PM CDT
Civil Twilight 4:45 AM CDT 8:24 PM CDT
Nautical Twilight 4:07 AM CDT 9:02 PM CDT
Astronomical Twilight 3:25 AM CDT 9:45 PM CDT
Moon 8:49 AM CDT (6/12) 10:34 PM CDT (6/12)
Length of Visible Light 15h 39m
Length of Day
14h 38m
Waxing Crescent, 14% of the Moon is Illuminated
Jun 12
Waxing Crescent
Jun 16
First Quarter
Jun 23
Full
Jun 29
Last Quarter
Jul 8
New

Hourly Weather History & Observations

Time (CDT) Temp. Heat Index Dew Point Humidity Pressure Visibility Wind Dir Wind Speed Gust Speed Precip Events Conditions
12:15 AM 65.5 °F - 63.9 °F 94% 30.04 in 10.0 mi Calm Calm - N/A   Clear
12:35 AM 65.5 °F - 63.9 °F 94% 30.04 in 10.0 mi Calm Calm - N/A   Clear
12:55 AM 64.8 °F - 63.7 °F 96% 30.05 in 10.0 mi Calm Calm - N/A   Clear
1:15 AM 64.8 °F - 63.5 °F 96% 30.04 in 10.0 mi Calm Calm - N/A   Clear
1:35 AM 64.8 °F - 63.7 °F 96% 30.03 in 10.0 mi Calm Calm - N/A   Clear
1:55 AM 64.4 °F - 63.5 °F 97% 30.04 in 10.0 mi Calm Calm - N/A   Clear
2:15 AM 64.6 °F - 63.7 °F 97% 30.03 in 10.0 mi Calm Calm - N/A   Clear
2:35 AM 64.2 °F - 63.1 °F 96% 30.02 in 10.0 mi Calm Calm - N/A   Clear
2:55 AM 63.9 °F - 63.0 °F 97% 30.02 in 10.0 mi Calm Calm - N/A   Clear
3:15 AM 63.7 °F - 62.8 °F 97% 30.03 in 10.0 mi Calm Calm - N/A   Clear
3:35 AM 64.0 °F - 63.0 °F 96% 30.03 in 10.0 mi Calm Calm - N/A   Clear
3:55 AM 63.5 °F - 62.8 °F 97% 30.03 in 10.0 mi Calm Calm - N/A   Clear
4:15 AM 63.5 °F - 62.8 °F 97% 30.03 in 10.0 mi Calm Calm - N/A   Clear
4:35 AM 63.1 °F - 62.6 °F 98% 30.04 in 10.0 mi Calm Calm - N/A   Clear
4:55 AM 63.3 °F - 62.4 °F 97% 30.05 in 10.0 mi Calm Calm - N/A   Clear
5:15 AM 63.0 °F - 62.1 °F 97% 30.05 in 10.0 mi Calm Calm - N/A   Clear
5:35 AM 63.3 °F - 62.6 °F 97% 30.06 in 10.0 mi Calm Calm - N/A   Clear
5:55 AM 63.5 °F - 62.6 °F 97% 30.06 in 10.0 mi Calm Calm - N/A   Clear
6:15 AM 64.4 °F - 62.8 °F 94% 30.06 in 10.0 mi Calm Calm - N/A   Clear
6:35 AM 64.6 °F - 63.5 °F 96% 30.06 in 10.0 mi Calm Calm - N/A   Clear
6:55 AM 66.2 °F - 63.9 °F 92% 30.06 in 10.0 mi Calm Calm - N/A   Clear
7:15 AM 66.6 °F - 63.9 °F 91% 30.06 in 10.0 mi Calm Calm - N/A   Clear
7:35 AM 68.4 °F - 64.6 °F 88% 30.06 in 10.0 mi Calm Calm - N/A   Clear
7:55 AM 69.8 °F - 64.9 °F 84% 30.07 in 10.0 mi Calm Calm - N/A   Clear
8:15 AM 72.1 °F - 66.4 °F 82% 30.07 in 10.0 mi Calm Calm - N/A   Clear
8:35 AM 73.4 °F - 66.9 °F 80% 30.07 in 10.0 mi Calm Calm - N/A   Clear
8:55 AM 76.1 °F - 67.8 °F 75% 30.06 in 10.0 mi Calm Calm - N/A   Clear
9:15 AM 79.0 °F - 69.4 °F 72% 30.06 in 10.0 mi Calm Calm - N/A   Clear
9:35 AM 80.6 °F 83.9 °F 70.0 °F 70% 30.06 in 10.0 mi Calm Calm - N/A   Clear
9:55 AM 83.3 °F 87.9 °F 70.9 °F 66% 30.06 in 10.0 mi Calm Calm - N/A   Clear
10:15 AM 86.7 °F 93.3 °F 72.3 °F 62% 30.06 in 10.0 mi WSW 3.5 mph - N/A   Clear
10:35 AM 88.2 °F 94.1 °F 71.4 °F 57% 30.06 in 10.0 mi West 5.8 mph - N/A   Clear
10:55 AM 88.3 °F 94.1 °F 71.1 °F 56% 30.06 in 10.0 mi West 4.6 mph - N/A   Clear
11:15 AM 90.0 °F 95.9 °F 70.7 °F 53% 30.05 in 10.0 mi West 5.8 mph - N/A   Clear
11:35 AM 90.3 °F 97.2 °F 71.8 °F 54% 30.05 in 10.0 mi WSW 5.8 mph - N/A   Scattered Clouds
11:55 AM 89.4 °F 96.8 °F 72.3 °F 57% 30.05 in 10.0 mi WNW 6.9 mph - N/A   Mostly Cloudy
12:15 PM 89.8 °F 97.0 °F 72.3 °F 56% 30.04 in 10.0 mi WNW 10.4 mph - N/A   Scattered Clouds
12:35 PM 89.6 °F 96.2 °F 71.4 °F 55% 30.04 in 10.0 mi NW 5.8 mph - N/A   Scattered Clouds
12:55 PM 90.5 °F 97.0 °F 71.4 °F 53% 30.03 in 10.0 mi Calm Calm - N/A   Scattered Clouds
1:15 PM 90.5 °F 97.5 °F 71.6 °F 54% 30.02 in 10.0 mi WNW 6.9 mph - N/A   Clear
1:35 PM 91.6 °F 96.7 °F 69.6 °F 48% 30.02 in 10.0 mi WSW 4.6 mph - N/A   Scattered Clouds
1:55 PM 90.9 °F 97.8 °F 71.8 °F 53% 30.01 in 10.0 mi NNW 3.5 mph - N/A   Scattered Clouds
2:15 PM 92.3 °F 98.6 °F 70.9 °F 49% 30.01 in 10.0 mi WSW 6.9 mph - N/A   Scattered Clouds
2:35 PM 92.8 °F 98.6 °F 69.6 °F 47% 30.00 in 10.0 mi West 6.9 mph - N/A   Scattered Clouds
2:55 PM 92.1 °F 96.7 °F 68.9 °F 46% 29.99 in 10.0 mi WNW 6.9 mph - N/A   Clear
3:15 PM 92.1 °F 97.2 °F 69.4 °F 47% 29.98 in 10.0 mi WSW 8.1 mph - N/A   Clear
3:35 PM 92.7 °F 97.2 °F 68.5 °F 45% 29.97 in 10.0 mi West 3.5 mph - N/A   Clear
3:55 PM 91.4 °F 97.3 °F 70.2 °F 50% 29.97 in 10.0 mi Calm Calm - N/A   Scattered Clouds
4:15 PM 91.6 °F 95.7 °F 68.2 °F 46% 29.97 in 10.0 mi West 6.9 mph - N/A   Scattered Clouds
4:35 PM 91.6 °F 96.2 °F 68.7 °F 47% 29.96 in 10.0 mi WNW 6.9 mph - N/A   Clear
4:55 PM 91.8 °F 96.0 °F 68.5 °F 46% 29.96 in 10.0 mi West 6.9 mph - N/A   Clear
5:15 PM 90.7 °F 94.5 °F 67.6 °F 47% 29.95 in 10.0 mi Calm Calm - N/A   Clear
5:35 PM 90.7 °F 95.0 °F 68.5 °F 48% 29.95 in 10.0 mi WSW 3.5 mph - N/A   Scattered Clouds
5:55 PM 90.3 °F 96.2 °F 70.5 °F 52% 29.95 in 10.0 mi SW 5.8 mph - N/A   Mostly Cloudy
6:15 PM 89.4 °F 92.7 °F 67.1 °F 48% 29.95 in 10.0 mi WSW 6.9 mph - N/A   Scattered Clouds
6:35 PM 88.7 °F 91.1 °F 66.2 °F 47% 29.95 in 10.0 mi SW 3.5 mph - N/A   Clear
6:55 PM 86.7 °F 91.7 °F 70.2 °F 58% 29.95 in 10.0 mi WSW 4.6 mph - N/A   Clear
7:15 PM 84.4 °F 88.2 °F 69.3 °F 60% 29.95 in 10.0 mi SW 3.5 mph - N/A   Clear
7:35 PM 81.1 °F 84.4 °F 69.1 °F 67% 29.94 in 10.0 mi WSW 3.5 mph - N/A   Clear
7:55 PM 79.7 °F - 68.9 °F 69% 29.95 in 10.0 mi Calm Calm - N/A   Clear
8:15 PM 77.4 °F - 69.1 °F 76% 29.94 in 10.0 mi Calm Calm - N/A   Clear
8:35 PM 76.1 °F - 68.2 °F 76% 29.94 in 10.0 mi Calm Calm - N/A   Clear
8:55 PM 75.2 °F - 67.8 °F 78% 29.95 in 10.0 mi Calm Calm - N/A   Clear
9:15 PM 74.1 °F - 68.0 °F 81% 29.95 in 10.0 mi Calm Calm - N/A   Clear
9:35 PM 72.5 °F - 68.0 °F 86% 29.94 in 10.0 mi Calm Calm - N/A   Clear
9:55 PM 72.7 °F - 67.6 °F 84% 29.94 in 10.0 mi Calm Calm - N/A   Clear
10:15 PM 72.5 °F - 67.5 °F 84% 29.94 in 10.0 mi Calm Calm - N/A   Clear
10:35 PM 72.5 °F - 67.5 °F 84% 29.94 in 10.0 mi Calm Calm - N/A   Clear
10:55 PM 72.7 °F - 67.5 °F 84% 29.93 in 10.0 mi Calm Calm - N/A   Clear
11:15 PM 72.9 °F - 67.5 °F 83% 29.93 in 10.0 mi Calm Calm - N/A   Clear
11:35 PM 71.4 °F - 67.1 °F 86% 29.93 in 10.0 mi Calm Calm - N/A   Clear
11:55 PM 71.1 °F - 67.1 °F 87% 29.93 in 10.0 mi Calm Calm - N/A   Clear